Retour au catalogue

COSMOS 2251 DEB

ActifLEO
NORAD 40238·DEBRIS·🇷🇺 Russia

Lancé Jun 16, 1993 depuis Plesetsk Cosmodrome

Loading…

Prochains Passages (prochaines 24 heures)

TLE

PériméSource: Space-Track

Époque: Aug 26, 2026, 18:04 UTC

1 40238U 93036BVT 26238.75316845  .00000887  00000-0  92198-3 0  9993
2 40238  73.9896  28.6466 0547022 311.6265  43.9170 13.25841446574421

Suivez COSMOS 2251 DEB en temps réel avec AllMySat

Download on the App Store